,,PA_Meas_PMT16A,,PR_Meas_QMR101_102,,RH_Meas_QMH101,,SR_Meas_QMS101,,TA_Meas_QMH101,,GenWind,,GenWind,
time,status,PA,status,PR,status,RH,status,SR,status,TA,status,DirAvg,status,SpdAvg,
2010-07-30, 00:00:04,VALID,917.996,VALID,0,VALID,93.9205,VALID,0,VALID,19.9728,VALID,24,VALID,0.471875,
2010-07-30, 00:01:04,VALID,917.954,VALID,0,VALID,93.9738,VALID,0,VALID,19.9938,VALID,24,VALID,0.360156,
2010-07-30, 00:02:04,VALID,917.962,VALID,0,VALID,93.9738,VALID,0,VALID,19.9938,VALID,24,VALID,0.469531,
2010-07-30, 00:03:04,VALID,917.938,VALID,0,VALID,94.0348,VALID,0,VALID,19.9938,VALID,24,VALID,0.263672,
2010-07-30, 00:04:04,VALID,917.938,VALID,0,VALID,93.9967,VALID,0,VALID,20.0133,VALID,24,VALID,0.420703,
2010-07-30, 00:05:04,VALID,917.949,VALID,0,VALID,94.0577,VALID,0,VALID,20.0133,VALID,24,VALID,0.34375,
2010-07-30, 00:06:04,VALID,917.978,VALID,0,VALID,93.9891,VALID,0,VALID,19.9938,VALID,24,VALID,0.334375,
2010-07-30, 00:07:04,VALID,917.978,VALID,0,VALID,93.9738,VALID,0,VALID,19.9938,VALID,24,VALID,0.0664063,
2010-07-30, 00:08:04,VALID,917.974,VALID,0,VALID,93.7604,VALID,0,VALID,19.9743,VALID,24,VALID,0.330469,
2010-07-30, 00:09:04,VALID,917.945,VALID,0,VALID,93.7833,VALID,0,VALID,19.9353,VALID,24,VALID,0.40625,
2010-07-30, 00:10:04,VALID,917.957,VALID,0,VALID,93.8519,VALID,0,VALID,19.9158,VALID,24,VALID,0.608984,
2010-07-30, 00:11:04,VALID,917.928,VALID,0,VALID,93.9586,VALID,0,VALID,19.8963,VALID,24,VALID,0.426953,
2010-07-30, 00:12:04,VALID,917.87,VALID,0,VALID,93.9662,VALID,0,VALID,19.8768,VALID,24,VALID,0.709766,
2010-07-30, 00:13:04,VALID,917.844,VALID,0,VALID,94.0501,VALID,0,VALID,19.8573,VALID,24,VALID,0.829297,
2010-07-30, 00:14:04,VALID,917.802,VALID,0,VALID,94.1492,VALID,0,VALID,19.8378,VALID,24,VALID,0.720312,
2010-07-30, 00:15:04,VALID,917.773,VALID,0,VALID,94.2483,VALID,0,VALID,19.8378,VALID,24,VALID,0.852734,
2010-07-30, 00:16:04,VALID,917.768,VALID,0,VALID,94.2407,VALID,0,VALID,19.8378,VALID,24,VALID,0.288281,
2010-07-30, 00:17:04,VALID,917.772,VALID,0,VALID,94.294,VALID,0,VALID,19.8573,VALID,24,VALID,0.479688,
2010-07-30, 00:18:04,VALID,917.753,VALID,0,VALID,94.2864,VALID,0,VALID,19.8783,VALID,24,VALID,0.622266,
2010-07-30, 00:19:04,VALID,917.783,VALID,0,VALID,94.1797,VALID,0,VALID,19.8573,VALID,24,VALID,0.471484,
2010-07-30, 00:20:04,VALID,917.807,VALID,0,VALID,94.2483,VALID,0,VALID,19.8573,VALID,24,VALID,1.07344,
2010-07-30, 00:21:04,VALID,917.814,VALID,0,VALID,94.2864,VALID,0,VALID,19.8768,VALID,24,VALID,0.389453,
2010-07-30, 00:22:04,VALID,917.844,VALID,0,VALID,94.3093,VALID,0,VALID,19.8573,VALID,24,VALID,0.565234,
2010-07-30, 00:23:04,VALID,917.841,VALID,0,VALID,94.2788,VALID,0,VALID,19.8378,VALID,24,VALID,0.970703,
2010-07-30, 00:24:04,VALID,917.855,VALID,0,VALID,94.3093,VALID,0,VALID,19.7988,VALID,24,VALID,0.815625,
2010-07-30, 00:25:04,VALID,917.837,VALID,0,VALID,94.4694,VALID,0,VALID,19.7793,VALID,24,VALID,0.953516,
2010-07-30, 00:26:04,VALID,917.828,VALID,0,VALID,94.6142,VALID,0,VALID,19.7793,VALID,127,VALID,1.45352,
2010-07-30, 00:27:04,VALID,917.824,VALID,0,VALID,94.7133,VALID,0,VALID,19.7808,VALID,112,VALID,1.45547,
2010-07-30, 00:28:04,VALID,917.825,VALID,0,VALID,94.8353,VALID,0,VALID,19.7598,VALID,123,VALID,1.74258,
2010-07-30, 00:29:04,VALID,917.806,VALID,0,VALID,94.9725,VALID,0,VALID,19.7418,VALID,123,VALID,1.38906,
2010-07-30, 00:30:04,VALID,917.819,VALID,0,VALID,95.1479,VALID,0,VALID,19.7013,VALID,122,VALID,1.37031,
2010-07-30, 00:31:04,VALID,917.808,VALID,0,VALID,95.2851,VALID,0,VALID,19.7013,VALID,119,VALID,2.08867,
2010-07-30, 00:32:04,VALID,917.81,VALID,0,VALID,95.4071,VALID,0,VALID,19.6818,VALID,158,VALID,1.22734,
2010-07-30, 00:33:04,VALID,917.854,VALID,0,VALID,95.4909,VALID,0,VALID,19.6413,VALID,147,VALID,1.23555,
2010-07-30, 00:34:04,VALID,917.865,VALID,0,VALID,95.5671,VALID,0,VALID,19.6833,VALID,152,VALID,0.542188,
2010-07-30, 00:35:04,VALID,917.849,VALID,0,VALID,95.6129,VALID,0,VALID,19.6623,VALID,152,VALID,1.19258,
2010-07-30, 00:36:04,VALID,917.876,VALID,0,VALID,95.6662,VALID,0,VALID,19.6428,VALID,131,VALID,1.51055,
2010-07-30, 00:37:04,VALID,917.866,VALID,0,VALID,95.6891,VALID,0,VALID,19.6428,VALID,107,VALID,1.2,
2010-07-30, 00:38:04,VALID,917.863,VALID,0,VALID,95.7044,VALID,0,VALID,19.6638,VALID,141,VALID,1.01406,
2010-07-30, 00:39:04,VALID,917.861,VALID,0,VALID,95.6662,VALID,0,VALID,19.6638,VALID,125,VALID,1.51211,
2010-07-30, 00:40:04,VALID,917.855,VALID,0,VALID,95.6357,VALID,0,VALID,19.6413,VALID,126,VALID,1.37891,
2010-07-30, 00:41:04,VALID,917.87,VALID,0,VALID,95.529,VALID,0,VALID,19.6623,VALID,139,VALID,0.898438,
2010-07-30, 00:42:04,VALID,917.9,VALID,0,VALID,95.3994,VALID,0,VALID,19.6818,VALID,139,VALID,1.06484,
2010-07-30, 00:43:04,VALID,917.865,VALID,0,VALID,95.247,VALID,0,VALID,19.6818,VALID,139,VALID,1.13945,
2010-07-30, 00:44:04,VALID,917.852,VALID,0,VALID,95.0716,VALID,0,VALID,19.7013,VALID,138,VALID,1.12148,
2010-07-30, 00:45:04,VALID,917.869,VALID,0,VALID,94.9115,VALID,0,VALID,19.7223,VALID,131,VALID,0.548828,
2010-07-30, 00:46:04,VALID,917.903,VALID,0,VALID,94.7362,VALID,0,VALID,19.7208,VALID,131,VALID,0.783203,
2010-07-30, 00:47:04,VALID,917.936,VALID,0,VALID,94.6447,VALID,0,VALID,19.7418,VALID,131,VALID,0.646875,
2010-07-30, 00:48:04,VALID,917.965,VALID,0,VALID,94.5304,VALID,0,VALID,19.7208,VALID,131,VALID,0.512891,
2010-07-30, 00:49:04,VALID,917.987,VALID,0,VALID,94.4313,VALID,0.107441,VALID,19.7403,VALID,131,VALID,0.516406,
2010-07-30, 00:50:04,VALID,917.969,VALID,0,VALID,94.2635,VALID,0,VALID,19.7403,VALID,131,VALID,0.966797,
2010-07-30, 00:51:04,VALID,917.976,VALID,0,VALID,94.1416,VALID,0,VALID,19.7403,VALID,131,VALID,0.632422,
2010-07-30, 00:52:04,VALID,917.982,VALID,0,VALID,93.951,VALID,0,VALID,19.7598,VALID,131,VALID,0.4,
2010-07-30, 00:53:04,VALID,917.977,VALID,0,VALID,93.9205,VALID,0,VALID,19.7793,VALID,131,VALID,0.504687,
2010-07-30, 00:54:04,VALID,917.922,VALID,0,VALID,93.8214,VALID,0,VALID,19.7988,VALID,131,VALID,0.550391,
2010-07-30, 00:55:04,VALID,917.944,VALID,0,VALID,93.7451,VALID,0,VALID,19.8183,VALID,131,VALID,0.778125,
2010-07-30, 00:56:04,VALID,917.89,VALID,0,VALID,93.6994,VALID,0,VALID,19.8378,VALID,131,VALID,0.691797,
2010-07-30, 00:57:04,VALID,917.852,VALID,0,VALID,93.6384,VALID,0,VALID,19.8378,VALID,131,VALID,0.385156,
2010-07-30, 00:58:04,VALID,917.852,VALID,0,VALID,93.5851,VALID,0,VALID,19.8378,VALID,131,VALID,0.395312,
2010-07-30, 00:59:04,VALID,917.862,VALID,0,VALID,93.2954,VALID,0,VALID,19.8378,VALID,131,VALID,0.919531,
2010-07-30, 01:00:04,VALID,917.821,VALID,0,VALID,93.1048,VALID,0,VALID,19.8378,VALID,131,VALID,1.12891,
2010-07-30, 01:01:04,VALID,917.796,VALID,0,VALID,93.0972,VALID,0,VALID,19.8183,VALID,131,VALID,0.901953,
2010-07-30, 01:02:04,VALID,917.777,VALID,0,VALID,93.0972,VALID,0,VALID,19.7988,VALID,131,VALID,0.869141,
2010-07-30, 01:03:04,VALID,917.778,VALID,0,VALID,92.9523,VALID,0,VALID,19.7793,VALID,131,VALID,1.26289,
2010-07-30, 01:04:04,VALID,917.772,VALID,0,VALID,92.7465,VALID,0.107441,VALID,19.7988,VALID,131,VALID,1.29023,
2010-07-30, 01:05:04,VALID,917.81,VALID,0,VALID,92.594,VALID,0,VALID,19.7988,VALID,131,VALID,0.739844,
2010-07-30, 01:06:04,VALID,917.785,VALID,0,VALID,92.3424,VALID,0,VALID,19.8183,VALID,131,VALID,0.769922,
2010-07-30, 01:07:04,VALID,917.782,VALID,0,VALID,92.1214,VALID,0,VALID,19.8183,VALID,131,VALID,0.972266,
2010-07-30, 01:08:04,VALID,917.755,VALID,0,VALID,91.8622,VALID,0,VALID,19.8573,VALID,131,VALID,0.966016,
2010-07-30, 01:09:04,VALID,917.77,VALID,0,VALID,91.6182,VALID,0,VALID,19.8768,VALID,131,VALID,0.836328,
2010-07-30, 01:10:04,VALID,917.767,VALID,0,VALID,91.5953,VALID,0,VALID,19.8573,VALID,131,VALID,0.367578,
2010-07-30, 01:11:04,VALID,917.754,VALID,0,VALID,92.068,VALID,0,VALID,19.8963,VALID,131,VALID,0.45625,
2010-07-30, 01:12:04,VALID,917.774,VALID,0,VALID,92.3272,VALID,0,VALID,19.9173,VALID,131,VALID,0.872656,
2010-07-30, 01:13:04,VALID,917.761,VALID,0,VALID,92.3119,VALID,0.107441,VALID,19.8963,VALID,131,VALID,0.814844,
2010-07-30, 01:14:04,VALID,917.77,VALID,0,VALID,92.007,VALID,0,VALID,19.8573,VALID,131,VALID,1.09336,
2010-07-30, 01:15:04,VALID,917.724,VALID,0,VALID,92.129,VALID,0,VALID,19.8183,VALID,131,VALID,0.991797,
2010-07-30, 01:16:04,VALID,917.709,VALID,0,VALID,92.0299,VALID,0,VALID,19.7793,VALID,131,VALID,0.965625,
2010-07-30, 01:17:04,VALID,917.695,VALID,0,VALID,92.1823,VALID,0,VALID,19.7598,VALID,131,VALID,0.589844,
2010-07-30, 01:18:04,VALID,917.689,VALID,0,VALID,92.1747,VALID,0,VALID,19.7598,VALID,131,VALID,0.684766,
2010-07-30, 01:19:04,VALID,917.692,VALID,0,VALID,92.0985,VALID,0,VALID,19.7598,VALID,131,VALID,0.940625,
2010-07-30, 01:20:04,VALID,917.683,VALID,0,VALID,92.4034,VALID,0,VALID,19.7598,VALID,131,VALID,0.644531,
2010-07-30, 01:21:04,VALID,917.686,VALID,0,VALID,92.7998,VALID,0.107441,VALID,19.7598,VALID,131,VALID,0.392969,
2010-07-30, 01:22:04,VALID,917.69,VALID,0.2,VALID,92.9447,VALID,0.107441,VALID,19.6818,VALID,131,VALID,0.7625,
2010-07-30, 01:23:04,VALID,917.673,VALID,0,VALID,92.9599,VALID,0.107441,VALID,19.6818,VALID,131,VALID,1.12539,
2010-07-30, 01:24:04,VALID,917.681,VALID,0,VALID,93.2344,VALID,0,VALID,19.6818,VALID,131,VALID,0.710938,
2010-07-30, 01:25:04,VALID,917.665,VALID,0,VALID,93.8443,VALID,0,VALID,19.7208,VALID,131,VALID,0.385156,
2010-07-30, 01:26:04,VALID,917.679,VALID,0.2,VALID,93.9357,VALID,0,VALID,19.7208,VALID,131,VALID,0.290234,
2010-07-30, 01:27:04,VALID,917.731,VALID,0,VALID,93.9129,VALID,0,VALID,19.7013,VALID,131,VALID,0.340234,
2010-07-30, 01:28:04,VALID,917.711,VALID,0,VALID,94.012,VALID,0,VALID,19.6623,VALID,131,VALID,0.343359,
2010-07-30, 01:29:04,VALID,917.719,VALID,0,VALID,94.0882,VALID,0,VALID,19.6233,VALID,131,VALID,0.565625,
2010-07-30, 01:30:04,VALID,917.67,VALID,0.2,VALID,94.1263,VALID,0,VALID,19.6038,VALID,131,VALID,1.09648,
2010-07-30, 01:31:04,VALID,917.671,VALID,0,VALID,94.3093,VALID,0.107441,VALID,19.5843,VALID,131,VALID,1.22812,
2010-07-30, 01:32:04,VALID,917.654,VALID,0,VALID,94.4541,VALID,0,VALID,19.5648,VALID,135,VALID,1.09687,
2010-07-30, 01:33:04,VALID,917.653,VALID,0.2,VALID,94.4465,VALID,0.107441,VALID,19.5453,VALID,138,VALID,1.00508,
2010-07-30, 01:34:04,VALID,917.69,VALID,0,VALID,94.5913,VALID,0,VALID,19.5453,VALID,138,VALID,0.992188,
2010-07-30, 01:35:04,VALID,917.701,VALID,0,VALID,94.6752,VALID,0.107441,VALID,19.5258,VALID,138,VALID,0.951953,
2010-07-30, 01:36:04,VALID,917.684,VALID,0.2,VALID,94.7743,VALID,0,VALID,19.5063,VALID,138,VALID,0.962891,
2010-07-30, 01:37:04,VALID,917.672,VALID,0,VALID,94.9801,VALID,0,VALID,19.5063,VALID,138,VALID,0.633594,
2010-07-30, 01:38:04,VALID,917.66,VALID,0,VALID,95.1631,VALID,0,VALID,19.5063,VALID,138,VALID,1.06875,
2010-07-30, 01:39:04,VALID,917.668,VALID,0,VALID,95.3613,VALID,0,VALID,19.5063,VALID,163,VALID,1.16641,
2010-07-30, 01:40:04,VALID,917.659,VALID,0.2,VALID,95.4528,VALID,0,VALID,19.4868,VALID,173,VALID,1.1875,
2010-07-30, 01:41:04,VALID,917.632,VALID,0,VALID,95.529,VALID,0,VALID,19.4673,VALID,173,VALID,1.41836,
2010-07-30, 01:42:04,VALID,917.616,VALID,0,VALID,95.6129,VALID,0.107441,VALID,19.4673,VALID,174,VALID,0.644141,
2010-07-30, 01:43:04,VALID,917.576,VALID,0,VALID,95.6815,VALID,0,VALID,19.4478,VALID,170,VALID,1.28164,
2010-07-30, 01:44:04,VALID,917.584,VALID,0,VALID,95.773,VALID,0,VALID,19.4478,VALID,148,VALID,1.54023,
2010-07-30, 01:45:04,VALID,917.565,VALID,0,VALID,95.8035,VALID,0.107441,VALID,19.4283,VALID,154,VALID,1.28203,
2010-07-30, 01:46:04,VALID,917.539,VALID,0.2,VALID,95.834,VALID,0,VALID,19.4088,VALID,154,VALID,0.411719,
2010-07-30, 01:47:04,VALID,917.527,VALID,0,VALID,95.8645,VALID,0.107441,VALID,19.4283,VALID,154,VALID,0.652734,
2010-07-30, 01:48:04,VALID,917.502,VALID,0,VALID,95.9026,VALID,0,VALID,19.4298,VALID,154,VALID,0.967578,
2010-07-30, 01:49:04,VALID,917.51,VALID,0,VALID,95.9941,VALID,0,VALID,19.4283,VALID,154,VALID,0.910547,
2010-07-30, 01:50:04,VALID,917.519,VALID,0,VALID,95.9941,VALID,0.107441,VALID,19.4283,VALID,154,VALID,0.658984,
2010-07-30, 01:51:04,VALID,917.556,VALID,0,VALID,96.0017,VALID,0,VALID,19.4283,VALID,162,VALID,1.3,
2010-07-30, 01:52:04,VALID,917.546,VALID,0,VALID,96.055,VALID,0,VALID,19.4493,VALID,165,VALID,1.11992,
2010-07-30, 01:53:04,VALID,917.546,VALID,0,VALID,96.0932,VALID,0,VALID,19.4493,VALID,177,VALID,1.425,
2010-07-30, 01:54:04,VALID,917.547,VALID,0,VALID,96.1236,VALID,0,VALID,19.4283,VALID,178,VALID,1.06523,
2010-07-30, 01:55:04,VALID,917.55,VALID,0,VALID,96.1846,VALID,0,VALID,19.4493,VALID,178,VALID,0.844922,
2010-07-30, 01:56:04,VALID,917.557,VALID,0,VALID,96.1923,VALID,0,VALID,19.4283,VALID,178,VALID,0.986719,
2010-07-30, 01:57:04,VALID,917.589,VALID,0,VALID,96.2151,VALID,0,VALID,19.4298,VALID,178,VALID,1.01406,
2010-07-30, 01:58:04,VALID,917.585,VALID,0,VALID,96.2761,VALID,0,VALID,19.4088,VALID,154,VALID,0.896484,
2010-07-30, 01:59:04,VALID,917.585,VALID,0,VALID,96.3219,VALID,0,VALID,19.4298,VALID,154,VALID,0.911328,
2010-07-30, 02:00:04,VALID,917.573,VALID,0,VALID,96.3371,VALID,0,VALID,19.4088,VALID,154,VALID,0.947656,
2010-07-30, 02:01:04,VALID,917.57,VALID,0,VALID,96.36,VALID,0,VALID,19.4088,VALID,154,VALID,0.771094,
2010-07-30, 02:02:04,VALID,917.527,VALID,0,VALID,96.3981,VALID,0,VALID,19.4283,VALID,154,VALID,0.617969,
2010-07-30, 02:03:04,VALID,917.49,VALID,0,VALID,96.4591,VALID,0,VALID,19.4688,VALID,154,VALID,0.435547,
2010-07-30, 02:04:04,VALID,917.492,VALID,0,VALID,96.4591,VALID,0,VALID,19.4283,VALID,154,VALID,0.763281,
2010-07-30, 02:05:04,VALID,917.477,VALID,0,VALID,96.5124,VALID,0,VALID,19.4478,VALID,154,VALID,0.768359,
2010-07-30, 02:06:04,VALID,917.436,VALID,0,VALID,96.5353,VALID,0,VALID,19.4688,VALID,154,VALID,0.462891,
2010-07-30, 02:07:04,VALID,917.436,VALID,0,VALID,96.5353,VALID,0,VALID,19.4478,VALID,154,VALID,0.526563,
2010-07-30, 02:08:04,VALID,917.424,VALID,0,VALID,96.5506,VALID,0,VALID,19.4478,VALID,154,VALID,0.602734,
2010-07-30, 02:09:04,VALID,917.393,VALID,0,VALID,96.5658,VALID,0,VALID,19.4478,VALID,154,VALID,0.28125,
2010-07-30, 02:10:04,VALID,917.379,VALID,0,VALID,96.5734,VALID,0,VALID,19.4673,VALID,154,VALID,0.435937,
2010-07-30, 02:11:04,VALID,917.391,VALID,0,VALID,96.5734,VALID,0,VALID,19.4478,VALID,154,VALID,0.115234,
2010-07-30, 02:12:04,VALID,917.416,VALID,0,VALID,96.6192,VALID,0,VALID,19.4673,VALID,154,VALID,0.104687,
2010-07-30, 02:13:04,VALID,917.418,VALID,0,VALID,96.5811,VALID,0,VALID,19.4868,VALID,154,VALID,0.464844,
2010-07-30, 02:14:04,VALID,917.434,VALID,0,VALID,96.5124,VALID,0,VALID,19.4478,VALID,154,VALID,0.802734,
2010-07-30, 02:15:04,VALID,917.444,VALID,0,VALID,96.4743,VALID,0,VALID,19.4298,VALID,154,VALID,1.01367,
2010-07-30, 02:16:04,VALID,917.476,VALID,0,VALID,96.4819,VALID,0,VALID,19.4298,VALID,154,VALID,0.670703,
2010-07-30, 02:17:04,VALID,917.501,VALID,0,VALID,96.5124,VALID,0,VALID,19.4298,VALID,154,VALID,0.866016,
2010-07-30, 02:18:04,VALID,917.482,VALID,0,VALID,96.5353,VALID,0,VALID,19.4493,VALID,154,VALID,1.04883,
2010-07-30, 02:19:04,VALID,917.517,VALID,0,VALID,96.4591,VALID,0,VALID,19.4283,VALID,153,VALID,1.02891,
2010-07-30, 02:20:04,VALID,917.488,VALID,0,VALID,96.4286,VALID,0,VALID,19.3698,VALID,153,VALID,0.935547,
2010-07-30, 02:21:04,VALID,917.484,VALID,0,VALID,96.3676,VALID,0,VALID,19.3503,VALID,153,VALID,0.7,
2010-07-30, 02:22:04,VALID,917.485,VALID,0,VALID,96.3905,VALID,0,VALID,19.3308,VALID,153,VALID,0.610937,
2010-07-30, 02:23:04,VALID,917.493,VALID,0,VALID,96.3752,VALID,0,VALID,19.3518,VALID,153,VALID,0.661328,
2010-07-30, 02:24:04,VALID,917.461,VALID,0,VALID,96.3295,VALID,0,VALID,19.3323,VALID,153,VALID,1.04023,
2010-07-30, 02:25:04,VALID,917.441,VALID,0,VALID,96.36,VALID,0,VALID,19.3323,VALID,152,VALID,0.95625,
2010-07-30, 02:26:04,VALID,917.466,VALID,0,VALID,96.299,VALID,0,VALID,19.3113,VALID,152,VALID,0.924219,
2010-07-30, 02:27:04,VALID,917.452,VALID,0,VALID,96.3142,VALID,0,VALID,19.3128,VALID,152,VALID,0.788672,
2010-07-30, 02:28:04,VALID,917.44,VALID,0,VALID,96.3295,VALID,0,VALID,19.2918,VALID,152,VALID,0.903516,
2010-07-30, 02:29:04,VALID,917.43,VALID,0,VALID,96.3142,VALID,0,VALID,19.2933,VALID,152,VALID,0.669531,
2010-07-30, 02:30:04,VALID,917.426,VALID,0,VALID,96.3219,VALID,0,VALID,19.2723,VALID,152,VALID,1.01523,
2010-07-30, 02:31:04,VALID,917.432,VALID,0,VALID,96.3219,VALID,0,VALID,19.2528,VALID,152,VALID,0.716797,
2010-07-30, 02:32:04,VALID,917.441,VALID,0,VALID,96.3829,VALID,0,VALID,19.2738,VALID,151,VALID,0.952734,
2010-07-30, 02:33:04,VALID,917.429,VALID,0,VALID,96.4591,VALID,0,VALID,19.2723,VALID,151,VALID,0.645312,
2010-07-30, 02:34:04,VALID,917.43,VALID,0.2,VALID,96.4667,VALID,0,VALID,19.2528,VALID,151,VALID,0.961328,
2010-07-30, 02:35:04,VALID,917.433,VALID,0,VALID,96.5048,VALID,0,VALID,19.2543,VALID,151,VALID,1.07266,
2010-07-30, 02:36:04,VALID,917.438,VALID,0,VALID,96.5201,VALID,0,VALID,19.2543,VALID,144,VALID,0.983984,
2010-07-30, 02:37:04,VALID,917.423,VALID,0,VALID,96.5658,VALID,0,VALID,19.2738,VALID,126,VALID,1.21445,
2010-07-30, 02:38:04,VALID,917.391,VALID,0,VALID,96.5887,VALID,0,VALID,19.2334,VALID,126,VALID,1.02031,
2010-07-30, 02:39:04,VALID,917.377,VALID,0,VALID,96.5963,VALID,0,VALID,19.2738,VALID,126,VALID,0.991016,
2010-07-30, 02:40:04,VALID,917.371,VALID,0,VALID,96.6497,VALID,0,VALID,19.2933,VALID,126,VALID,1.11758,
2010-07-30, 02:41:04,VALID,917.365,VALID,0,VALID,96.6802,VALID,0,VALID,19.2933,VALID,126,VALID,0.873047,
2010-07-30, 02:42:04,VALID,917.367,VALID,0.2,VALID,96.6954,VALID,0,VALID,19.2933,VALID,126,VALID,0.797656,
2010-07-30, 02:43:04,VALID,917.338,VALID,0,VALID,96.6725,VALID,0,VALID,19.2723,VALID,126,VALID,0.465625,
2010-07-30, 02:44:04,VALID,917.341,VALID,0,VALID,96.6649,VALID,0,VALID,19.2723,VALID,126,VALID,0.730859,
2010-07-30, 02:45:04,VALID,917.304,VALID,0,VALID,96.6573,VALID,0,VALID,19.2528,VALID,126,VALID,0.966797,
2010-07-30, 02:46:04,VALID,917.301,VALID,0,VALID,96.6954,VALID,0,VALID,19.2723,VALID,126,VALID,0.715234,
2010-07-30, 02:47:04,VALID,917.333,VALID,0.2,VALID,96.7107,VALID,0,VALID,19.2918,VALID,126,VALID,0.489844,
2010-07-30, 02:48:04,VALID,917.326,VALID,0,VALID,96.6725,VALID,0,VALID,19.2918,VALID,126,VALID,0.9875,
2010-07-30, 02:49:04,VALID,917.301,VALID,0,VALID,96.6115,VALID,0,VALID,19.2723,VALID,126,VALID,0.993359,
2010-07-30, 02:50:04,VALID,917.264,VALID,0,VALID,96.5963,VALID,0,VALID,19.2738,VALID,126,VALID,1.02969,
2010-07-30, 02:51:04,VALID,917.223,VALID,0.2,VALID,96.5963,VALID,0,VALID,19.2334,VALID,126,VALID,1.02578,
2010-07-30, 02:52:04,VALID,917.207,VALID,0,VALID,96.6039,VALID,0,VALID,19.2334,VALID,126,VALID,1.0543,
2010-07-30, 02:53:04,VALID,917.193,VALID,0,VALID,96.6268,VALID,0,VALID,19.2334,VALID,126,VALID,0.646094,
2010-07-30, 02:54:04,VALID,917.183,VALID,0,VALID,96.6573,VALID,0,VALID,19.2348,VALID,126,VALID,0.476953,
2010-07-30, 02:55:04,VALID,917.171,VALID,0.2,VALID,96.642,VALID,0.107441,VALID,19.2334,VALID,126,VALID,0.546094,
2010-07-30, 02:56:04,VALID,917.157,VALID,0,VALID,96.642,VALID,0,VALID,19.2334,VALID,126,VALID,0.327734,
2010-07-30, 02:57:04,VALID,917.145,VALID,0,VALID,96.6802,VALID,0,VALID,19.2528,VALID,126,VALID,0.305469,
2010-07-30, 02:58:04,VALID,917.15,VALID,0,VALID,96.6344,VALID,0,VALID,19.2334,VALID,126,VALID,0.451562,
2010-07-30, 02:59:04,VALID,917.148,VALID,0,VALID,96.6649,VALID,0,VALID,19.2139,VALID,126,VALID,0.442969,
2010-07-30, 03:00:04,VALID,917.188,VALID,0,VALID,96.6878,VALID,0,VALID,19.2348,VALID,126,VALID,0.599609,
2010-07-30, 03:01:04,VALID,917.169,VALID,0,VALID,96.703,VALID,0,VALID,19.2153,VALID,126,VALID,0.646875,
2010-07-30, 03:02:04,VALID,917.211,VALID,0.2,VALID,96.6878,VALID,0,VALID,19.2139,VALID,126,VALID,0.500391,
2010-07-30, 03:03:04,VALID,917.247,VALID,0,VALID,96.703,VALID,0,VALID,19.1944,VALID,126,VALID,0.794141,
2010-07-30, 03:04:04,VALID,917.265,VALID,0,VALID,96.703,VALID,0,VALID,19.1944,VALID,126,VALID,0.936719,
2010-07-30, 03:05:04,VALID,917.274,VALID,0,VALID,96.7183,VALID,0,VALID,19.1944,VALID,126,VALID,0.927344,
2010-07-30, 03:06:04,VALID,917.299,VALID,0,VALID,96.703,VALID,0,VALID,19.2153,VALID,126,VALID,0.907031,
2010-07-30, 03:07:04,VALID,917.278,VALID,0,VALID,96.7335,VALID,0,VALID,19.2348,VALID,126,VALID,0.673828,
2010-07-30, 03:08:04,VALID,917.294,VALID,0,VALID,96.7335,VALID,0,VALID,19.2139,VALID,126,VALID,0.829687,
2010-07-30, 03:09:04,VALID,917.265,VALID,0,VALID,96.7869,VALID,0,VALID,19.2348,VALID,126,VALID,0.822656,
2010-07-30, 03:10:04,VALID,917.27,VALID,0,VALID,96.7411,VALID,0,VALID,19.1944,VALID,126,VALID,1.2582,
2010-07-30, 03:11:04,VALID,917.25,VALID,0,VALID,96.7564,VALID,0,VALID,19.1944,VALID,127,VALID,0.667578,
2010-07-30, 03:12:04,VALID,917.218,VALID,0,VALID,96.764,VALID,0,VALID,19.1749,VALID,126,VALID,0.995313,
2010-07-30, 03:13:04,VALID,917.236,VALID,0.2,VALID,96.7869,VALID,0,VALID,19.1554,VALID,127,VALID,0.437891,
2010-07-30, 03:14:04,VALID,917.222,VALID,0,VALID,96.7716,VALID,0,VALID,19.1554,VALID,127,VALID,1.09023,
2010-07-30, 03:15:04,VALID,917.181,VALID,0,VALID,96.7716,VALID,0,VALID,19.1359,VALID,127,VALID,0.698438,
2010-07-30, 03:16:04,VALID,917.232,VALID,0,VALID,96.7793,VALID,0.107441,VALID,19.1359,VALID,127,VALID,0.601563,
2010-07-30, 03:17:04,VALID,917.209,VALID,0,VALID,96.7793,VALID,0.107441,VALID,19.1359,VALID,127,VALID,0.473437,
2010-07-30, 03:18:04,VALID,917.182,VALID,0,VALID,96.7793,VALID,0,VALID,19.1164,VALID,127,VALID,1.00352,
2010-07-30, 03:19:04,VALID,917.174,VALID,0,VALID,96.7869,VALID,0,VALID,19.0969,VALID,127,VALID,0.807031,
2010-07-30, 03:20:04,VALID,917.173,VALID,0,VALID,96.8098,VALID,0,VALID,19.1178,VALID,127,VALID,0.830859,
2010-07-30, 03:21:04,VALID,917.17,VALID,0,VALID,96.7869,VALID,0,VALID,19.0969,VALID,127,VALID,1.32969,
2010-07-30, 03:22:04,VALID,917.182,VALID,0,VALID,96.7793,VALID,0,VALID,19.0969,VALID,127,VALID,1.17891,
2010-07-30, 03:23:04,VALID,917.19,VALID,0,VALID,96.825,VALID,0,VALID,19.0969,VALID,127,VALID,0.803125,
2010-07-30, 03:24:04,VALID,917.175,VALID,0,VALID,96.7869,VALID,0,VALID,19.1164,VALID,127,VALID,0.785937,
2010-07-30, 03:25:04,VALID,917.172,VALID,0,VALID,96.7793,VALID,0,VALID,19.0969,VALID,127,VALID,0.751172,
2010-07-30, 03:26:04,VALID,917.132,VALID,0,VALID,96.764,VALID,0,VALID,19.0969,VALID,127,VALID,0.617188,
2010-07-30, 03:27:04,VALID,917.163,VALID,0.2,VALID,96.7564,VALID,0,VALID,19.0969,VALID,127,VALID,0.426953,
2010-07-30, 03:28:04,VALID,917.144,VALID,0,VALID,96.7793,VALID,0,VALID,19.0969,VALID,127,VALID,0.375,
2010-07-30, 03:29:04,VALID,917.13,VALID,0,VALID,96.7716,VALID,0,VALID,19.0983,VALID,127,VALID,0.380859,
2010-07-30, 03:30:04,VALID,917.134,VALID,0,VALID,96.8098,VALID,0,VALID,19.1178,VALID,127,VALID,0.460156,
2010-07-30, 03:31:04,VALID,917.136,VALID,0,VALID,96.764,VALID,0,VALID,19.1178,VALID,128,VALID,0.55625,
2010-07-30, 03:32:04,VALID,917.134,VALID,0,VALID,96.7793,VALID,0,VALID,19.1164,VALID,156,VALID,0.820313,
2010-07-30, 03:33:04,VALID,917.184,VALID,0,VALID,96.7793,VALID,0,VALID,19.1568,VALID,156,VALID,0.887891,
2010-07-30, 03:34:04,VALID,917.2,VALID,0,VALID,96.7335,VALID,0,VALID,19.0969,VALID,126,VALID,1.41758,
2010-07-30, 03:35:04,VALID,917.19,VALID,0,VALID,96.7183,VALID,0,VALID,19.1164,VALID,126,VALID,1.14297,
2010-07-30, 03:36:04,VALID,917.196,VALID,0,VALID,96.7716,VALID,0,VALID,19.1164,VALID,126,VALID,0.896094,
2010-07-30, 03:37:04,VALID,917.208,VALID,0.2,VALID,96.7183,VALID,0,VALID,19.1164,VALID,126,VALID,1.03633,
2010-07-30, 03:38:04,VALID,917.204,VALID,0,VALID,96.6954,VALID,0,VALID,19.1373,VALID,126,VALID,1.13125,
2010-07-30, 03:39:04,VALID,917.181,VALID,0,VALID,96.6802,VALID,0,VALID,19.1373,VALID,126,VALID,0.743359,
2010-07-30, 03:40:04,VALID,917.215,VALID,0,VALID,96.6573,VALID,0,VALID,19.0969,VALID,126,VALID,0.897656,
2010-07-30, 03:41:04,VALID,917.172,VALID,0,VALID,96.642,VALID,0,VALID,19.1178,VALID,126,VALID,0.567969,
2010-07-30, 03:42:04,VALID,917.159,VALID,0,VALID,96.6115,VALID,0,VALID,19.1178,VALID,126,VALID,0.682813,
2010-07-30, 03:43:04,VALID,917.148,VALID,0,VALID,96.6192,VALID,0,VALID,19.1164,VALID,126,VALID,0.292578,